SCP
-0 -0 -0 -0 -0 -0 -0 -0 -0 -0 -0 -0 -0 -0 -0 -0 -0 -0 -0 -0 -0 -0 -0 -0 -0 -0 -0 -0 0 -0 0 0
-0 -0 -0 -0 -0 -0 -0 -0 -0 -0 -0 -0 -0 -0 -0 0 -0 -0 -0 -0 -0 -0 -0 -0 -0 -0 -0 -0 0 0 0 0
-0 -0 -0 -0 -0 -0 -0 -0 -0 -0 -0 -0 -0 -0 -0 0 0 0 0 0 0 0 0 0 0 0 0 0 0 0 0 0
-0 -0 -0 -0 -0 -0 -0 -0 -0 -0 -0 -0 -0 -0 -0 0 0 0 0 0 0 0 0 0 0 0 0 0 0 0 0 0
-0 -0 -0 -0 -0 -0 -0 -0 -0 -0 -0 -0 -0 -0 0 0 0 0 0 0 0 0 0 0 0 0 0 0 0 0 0 -0
-0 -0 -0 -0 -0 -0 -0 -0 -0 -0 -0 -0 -0 0 0 0 0 -0 0 0 0 0 0 0 0 0 0 0 0 0 0 0
-0 -0 -0 -0 -0 -0 -0 -0 -0 -0 -0 -0 0 0 0 0 0 -0 0 0 0 0 0 -0 0 0 0 0 0 0 0 0
-0 -0 -0 -0 -0 -0 -0 -0 0 0 0 0 0 0 0 0 0 0 0 0 0 -0 0 0 0 0 0 0 0 0 0 0
0 0 0 -0 -0 0 0 0 0 -0 0 0 -0 -0 0 0 0 0 0 0 0 0 0 0 0 0 0 0 0 0 0 0
0 0 0 0 -0 -0 -0 0 -0 0 -0 -0 -0 -0 -0 0 0 0 0 0 0 0 0 0 0 0 0 0 0 0 0 0
0 0 0 -0 -0 -0 0 0 0 -0 -0 -0 0 0 -0 0 0 0 0 0 0 0 0 0 0 0 0 0 0 0 0 0
-0 0 -0 -0 -0 -0 0 0 0 0 0 0 0 0 -0 0 0 0 0 0 0 0 0 0 0 0 0 0 0 0 0 0
0 0 0 0 0 0 0 0 0 0 0 0 0 0 0 0 0 0 0 0 0 0 0 0 0 0 0 0 0 0 0 0
0 0 0 0 0 0 0 0 0 0 0 0 0 0 0 0 0 0 0 0 1 0 0 1 1 1 1 0 0 0 0 1
0 0 0 0 0 0 0 0 0 0 0 0 0 0 0 0 0 0 0 1 0 0 1 1 1 1 1 1 0 0 0 0
1 0 0 0 1 1 0 0 0 0 1 1 1 1 1 1 1 1 0 1 0 0 1 1 1 1 1 0 0 0 0 0
1 1 1 1 1 0 0 1 1 1 1 1 1 1 1 1 1 1 1 1 1 1 1 0 0 0 0 0 0 0 0 0
1 1 1 1 1 1 1 1 1 1 2 1 1 1 1 1 1 1 1 1 1 0 0 0 0 0 0 0 0 0 0 0
1 1 1 1 1 1 1 1 1 1 1 2 2 2 1 1 0 0 0 0 0 0 0 0 0 0 0 0 0 0 0 0
Wind_Speed_500mb
39 34 35 31 28 25 24 26 27 28 28 28 29 30 29 29 29 28 26 24 22 20 18 17 16 15 14 14 14 15 16 18
39 34 35 32 29 27 25 25 25 26 27 27 27 27 27 27 26 23 22 21 18 15 13 12 11 10 9 10 11 12 13 14
39 34 34 33 30 26 24 24 24 25 25 24 24 24 25 24 24 22 19 17 14 12 8 7 7 7 7 8 9 12 15 17
37 34 34 32 31 28 25 23 22 24 24 23 23 23 22 21 20 19 17 14 12 9 6 3 3 4 6 8 10 12 14 17
37 33 32 31 30 28 26 25 23 22 22 22 22 21 20 18 15 14 12 12 11 9 6 4 4 5 7 9 11 14 17 15
37 36 33 32 29 28 25 27 25 23 22 21 20 18 18 13 12 12 13 11 10 9 8 9 9 10 12 12 17 18 22 13
40 39 36 35 33 31 27 27 25 24 21 21 19 19 16 15 16 17 17 14 13 12 12 13 16 17 18 13 19 24 18 21
39 38 38 37 36 32 27 26 23 22 21 22 22 19 18 16 14 13 12 12 14 16 10 17 17 15 18 17 17 21 23 22
38 37 38 37 40 37 29 28 25 24 23 21 21 21 20 17 17 15 14 16 15 14 19 17 17 22 22 23 24 26 25 26
39 39 39 39 41 41 39 29 28 28 27 23 23 22 20 18 18 15 17 17 18 18 17 19 20 23 23 25 26 27 26 27
39 40 39 40 38 38 37 35 31 28 25 24 22 21 23 20 20 17 16 15 19 19 19 20 20 23 24 25 27 26 27 27
44 40 40 38 39 40 39 39 35 28 26 22 21 25 22 21 21 22 17 18 17 18 22 22 23 23 27 26 25 25 26 26
46 49 43 39 38 41 42 40 35 30 27 23 21 24 26 27 28 26 22 19 20 21 22 22 23 25 27 28 26 27 27 27
60 57 53 49 44 42 42 41 39 36 34 26 25 25 29 31 33 32 24 21 32 28 24 23 22 25 23 22 26 25 26 25
57 62 61 59 54 49 45 45 41 35 35 31 31 28 35 31 34 32 26 34 30 23 18 16 23 18 21 22 24 27 24 23
58 62 66 66 64 60 55 51 45 40 43 36 40 35 30 25 22 28 25 26 21 11 13 15 13 18 18 22 23 21 20 15
63 64 64 68 68 69 62 57 42 42 36 35 36 34 29 25 25 24 21 15 14 13 13 15 15 13 15 14 12 19 16 17
59 67 66 66 67 68 65 57 61 43 55 46 40 33 32 27 26 26 22 20 18 15 14 18 17 11 8 10 14 10 14 12
53 50 60 62 64 68 69 58 68 64 42 33 32 42 38 32 31 26 25 22 19 17 18 13 11 7 5 7 9 10 7 13
Wind_Direction_500mb
152 154 156 151 144 141 145 143 141 136 134 133 131 130 129 123 120 116 114 112 107 105 103 96 87 80 73 66 57 48 43 37
154 160 159 153 149 149 151 146 142 137 138 138 137 135 133 129 124 124 123 121 120 113 107 100 85 71 62 54 40 32 24 15
158 159 165 160 155 153 154 153 149 145 144 143 142 141 139 137 137 137 137 134 133 130 121 96 81 72 51 36 29 22 16 12
164 162 169 167 162 161 162 161 159 152 151 150 150 151 150 150 150 148 150 150 154 151 149 132 61 20 21 13 11 8 1 355
169 170 169 169 170 170 171 170 169 166 163 161 161 164 163 162 164 163 167 176 182 182 190 210 259 296 316 328 336 345 344 347
176 177 175 172 176 170 178 182 179 179 177 175 175 176 178 173 198 197 215 210 214 217 229 251 266 281 294 310 318 325 323 336
181 182 182 179 181 177 181 192 187 192 192 189 190 191 187 208 205 202 224 224 235 244 254 264 275 284 301 312 308 323 333 303
186 185 188 185 185 184 186 187 189 194 195 201 200 199 201 217 227 225 235 252 246 261 271 283 288 296 275 277 285 288 293 307
190 191 190 193 197 189 190 194 196 194 200 200 208 210 210 218 230 219 231 237 246 250 254 273 272 273 281 282 284 286 290 292
191 194 194 196 203 204 199 200 198 203 207 206 214 216 212 220 226 230 238 238 238 250 264 276 280 281 280 287 287 283 289 286
192 196 194 200 208 209 211 211 207 210 213 213 214 216 220 219 227 225 241 247 249 254 262 273 282 278 283 287 292 293 288 288
198 194 198 201 208 210 212 215 212 210 207 211 214 222 217 221 229 228 237 246 257 263 269 278 287 294 300 296 294 303 296 296
203 204 204 203 210 212 212 214 213 211 207 212 215 225 227 235 242 247 250 255 260 269 272 275 282 283 292 283 290 290 287 289
212 212 212 214 210 216 216 214 213 218 214 215 219 229 242 248 256 263 259 260 276 281 271 268 275 286 293 295 297 293 291 287
220 216 220 221 220 220 221 220 218 216 219 221 230 236 254 263 260 280 257 272 287 280 265 271 279 279 291 297 302 295 290 284
220 223 221 224 227 227 224 220 214 212 220 221 231 243 261 266 265 265 267 273 276 251 254 280 283 294 304 301 312 307 299 300
221 229 225 226 228 231 228 225 213 214 217 222 227 238 242 257 260 260 254 256 258 262 266 269 279 285 299 314 328 312 305 297
220 225 230 228 228 232 224 220 222 212 223 225 231 240 245 245 252 257 247 237 264 261 276 281 291 287 287 313 343 345 323 326
224 222 226 230 229 230 226 216 223 226 215 211 210 231 238 241 250 247 245 252 257 247 259 264 259 275 293 306 325 346 332 308
Wind_Speed_850mb
39 34 35 31 28 25 24 26 27 28 28 28 29 30 29 29 29 28 26 24 22 20 18 17 16 15 14 14 14 15 16 18
39 34 35 32 29 27 25 25 25 26 27 27 27 27 27 27 26 23 22 21 18 15 13 12 11 10 9 10 11 12 13 14
39 34 34 33 30 26 24 24 24 25 25 24 24 24 25 24 24 22 19 17 14 12 8 7 7 7 7 8 9 12 15 17
37 34 34 32 31 28 25 23 22 24 24 23 23 23 22 21 20 19 17 14 12 9 6 3 3 4 6 8 10 12 14 17
37 33 32 31 30 28 26 25 23 22 22 22 22 21 20 18 15 14 12 12 11 9 6 4 4 5 7 9 11 14 17 15
37 36 33 32 29 28 25 27 25 23 22 21 20 18 18 13 12 12 13 11 10 9 8 9 9 10 12 12 17 18 22 13
40 39 36 35 33 31 27 27 25 24 21 21 19 19 16 15 16 17 17 14 13 12 12 13 16 17 18 13 19 24 18 21
39 38 38 37 36 32 27 26 23 22 21 22 22 19 18 16 14 13 12 12 14 16 10 17 17 15 18 17 17 21 23 22
38 37 38 37 40 37 29 28 25 24 23 21 21 21 20 17 17 15 14 16 15 14 19 17 17 22 22 23 24 26 25 26
39 39 39 39 41 41 39 29 28 28 27 23 23 22 20 18 18 15 17 17 18 18 17 19 20 23 23 25 26 27 26 27
39 40 39 40 38 38 37 35 31 28 25 24 22 21 23 20 20 17 16 15 19 19 19 20 20 23 24 25 27 26 27 27
44 40 40 38 39 40 39 39 35 28 26 22 21 25 22 21 21 22 17 18 17 18 22 22 23 23 27 26 25 25 26 26
46 49 43 39 38 41 42 40 35 30 27 23 21 24 26 27 28 26 22 19 20 21 22 22 23 25 27 28 26 27 27 27
60 57 53 49 44 42 42 41 39 36 34 26 25 25 29 31 33 32 24 21 32 28 24 23 22 25 23 22 26 25 26 25
57 62 61 59 54 49 45 45 41 35 35 31 31 28 35 31 34 32 26 34 30 23 18 16 23 18 21 22 24 27 24 23
58 62 66 66 64 60 55 51 45 40 43 36 40 35 30 25 22 28 25 26 21 11 13 15 13 18 18 22 23 21 20 15
63 64 64 68 68 69 62 57 42 42 36 35 36 34 29 25 25 24 21 15 14 13 13 15 15 13 15 14 12 19 16 17
59 67 66 66 67 68 65 57 61 43 55 46 40 33 32 27 26 26 22 20 18 15 14 18 17 11 8 10 14 10 14 12
53 50 60 62 64 68 69 58 68 64 42 33 32 42 38 32 31 26 25 22 19 17 18 13 11 7 5 7 9 10 7 13
Wind_Direction_850mb
152 154 156 151 144 141 145 143 141 136 134 133 131 130 129 123 120 116 114 112 107 105 103 96 87 80 73 66 57 48 43 37
154 160 159 153 149 149 151 146 142 137 138 138 137 135 133 129 124 124 123 121 120 113 107 100 85 71 62 54 40 32 24 15
158 159 165 160 155 153 154 153 149 145 144 143 142 141 139 137 137 137 137 134 133 130 121 96 81 72 51 36 29 22 16 12
164 162 169 167 162 161 162 161 159 152 151 150 150 151 150 150 150 148 150 150 154 151 149 132 61 20 21 13 11 8 1 355
169 170 169 169 170 170 171 170 169 166 163 161 161 164 163 162 164 163 167 176 182 182 190 210 259 296 316 328 336 345 344 347
176 177 175 172 176 170 178 182 179 179 177 175 175 176 178 173 198 197 215 210 214 217 229 251 266 281 294 310 318 325 323 336
181 182 182 179 181 177 181 192 187 192 192 189 190 191 187 208 205 202 224 224 235 244 254 264 275 284 301 312 308 323 333 303
186 185 188 185 185 184 186 187 189 194 195 201 200 199 201 217 227 225 235 252 246 261 271 283 288 296 275 277 285 288 293 307
190 191 190 193 197 189 190 194 196 194 200 200 208 210 210 218 230 219 231 237 246 250 254 273 272 273 281 282 284 286 290 292
191 194 194 196 203 204 199 200 198 203 207 206 214 216 212 220 226 230 238 238 238 250 264 276 280 281 280 287 287 283 289 286
192 196 194 200 208 209 211 211 207 210 213 213 214 216 220 219 227 225 241 247 249 254 262 273 282 278 283 287 292 293 288 288
198 194 198 201 208 210 212 215 212 210 207 211 214 222 217 221 229 228 237 246 257 263 269 278 287 294 300 296 294 303 296 296
203 204 204 203 210 212 212 214 213 211 207 212 215 225 227 235 242 247 250 255 260 269 272 275 282 283 292 283 290 290 287 289
212 212 212 214 210 216 216 214 213 218 214 215 219 229 242 248 256 263 259 260 276 281 271 268 275 286 293 295 297 293 291 287
220 216 220 221 220 220 221 220 218 216 219 221 230 236 254 263 260 280 257 272 287 280 265 271 279 279 291 297 302 295 290 284
220 223 221 224 227 227 224 220 214 212 220 221 231 243 261 266 265 265 267 273 276 251 254 280 283 294 304 301 312 307 299 300
221 229 225 226 228 231 228 225 213 214 217 222 227 238 242 257 260 260 254 256 258 262 266 269 279 285 299 314 328 312 305 297
220 225 230 228 228 232 224 220 222 212 223 225 231 240 245 245 252 257 247 237 264 261 276 281 291 287 287 313 343 345 323 326
224 222 226 230 229 230 226 216 223 226 215 211 210 231 238 241 250 247 245 252 257 247 259 264 259 275 293 306 325 346 332 308